This demonstration page uses our WeatherBlox Daily Observations layout. Learn more.

Hourly Observations for September 6, 2019

Temp ( °F °C ) Dew Point ( °F °C ) Humidity (%) Winds ( mph kmh ) Pressure ( in mb ) Visibility ( mi km ) Precip ( " mm )
12:15 am 00:15 Clear 68 20 63 17 83 83 NNE 5 7 29.97 1015 10 16.09344 0 0
12:35 am 00:35 Partly Cloudy 66 19 61 16 83 83 NNE 8 13 29.97 1015 10 16.09344 0 0
12:55 am 00:55 Partly Cloudy 66 19 61 16 83 83 NNE 7 11 29.97 1015 10 16.09344 0 0
1:15 am 01:15 Mostly Cloudy 66 19 61 16 83 83 NNE 8 13 29.97 1015 10 16.09344 0 0
1:35 am 01:35 Partly Cloudy 64 18 61 16 88 88 NNE 10 17 29.97 1015 10 16.09344 0 0
1:55 am 01:55 Clear 64 18 61 16 88 88 NNE 9 15 29.97 1015 10 16.09344 0 0
2:15 am 02:15 Clear 64 18 61 16 88 88 NNE 7 11 29.97 1015 10 16.09344 0 0
2:35 am 02:35 Mostly Cloudy 64 18 61 16 88 88 NNE 8 13 29.97 1015 10 16.09344 0 0
2:55 am 02:55 Partly Cloudy 64 18 61 16 88 88 NNE 9 15 29.97 1015 10 16.09344 0 0
3:15 am 03:15 Partly Cloudy 64 18 61 16 88 88 NNE 10 17 29.94 1014 10 16.09344 0 0
3:35 am 03:35 Partly Cloudy 64 18 61 16 88 88 NNE 8 13 29.94 1014 10 16.09344 0 0
3:55 am 03:55 Partly Cloudy 64 18 61 16 88 88 NNE 8 13 29.94 1014 10 16.09344 0 0
4:15 am 04:15 Cloudy 64 18 61 16 88 88 NNE 9 15 29.94 1014 10 16.09344 0 0
4:35 am 04:35 Cloudy 64 18 61 16 88 88 NNE 7 11 29.94 1014 10 16.09344 0 0
4:55 am 04:55 Cloudy 64 18 61 16 88 88 NNE 9 15 29.94 1014 10 16.09344 0 0
5:15 am 05:15 Cloudy 64 18 61 16 88 88 N 10 17 29.91 1013 10 16.09344 0 0
5:35 am 05:35 Cloudy 64 18 61 16 88 88 NNE 9 15 29.94 1014 10 16.09344 0 0
5:55 am 05:55 Cloudy 64 18 61 16 88 88 NNE 8 13 29.91 1013 10 16.09344 0 0
6:15 am 06:15 Cloudy 64 18 61 16 88 88 NNE 8 13 29.91 1013 10 16.09344 0 0
6:35 am 06:35 Cloudy 64 18 61 16 88 88 NNE 7 11 29.91 1013 10 16.09344 0 0
6:55 am 06:55 Mostly Cloudy 63 17 61 16 94 94 N 10 17 29.91 1013 10 16.09344 0 0
7:15 am 07:15 Mostly Cloudy 63 17 61 16 94 94 NNE 10 17 29.91 1013 10 16.09344 0 0
7:35 am 07:35 Mostly Cloudy 63 17 59 15 88 88 NNE 7 11 29.91 1013 10 16.09344 0 0
7:55 am 07:55 Cloudy 63 17 59 15 88 88 N 10 17 29.91 1013 10 16.09344 0 0
8:15 am 08:15 Partly Cloudy 63 17 59 15 88 88 NNE 9 15 29.88 1012 10 16.09344 0 0
8:35 am 08:35 Sunny 64 18 59 15 83 83 NNE 8 13 29.91 1013 10 16.09344 0 0
8:55 am 08:55 Mostly Cloudy 64 18 59 15 83 83 NNE 8 13 29.91 1013 10 16.09344 0 0
9:15 am 09:15 Partly Cloudy 64 18 59 15 83 83 NNE 9 15 29.91 1013 10 16.09344 0 0
9:35 am 09:35 Sunny 66 19 59 15 78 78 NNE 13 20 29.91 1013 10 16.09344 0 0
9:55 am 09:55 Sunny 68 20 59 15 73 73 NNE 13 20 29.91 1013 10 16.09344 0 0
10:15 am 10:15 Sunny 70 21 61 16 73 73 NNE 8 13 29.88 1012 10 16.09344 0 0
10:35 am 10:35 Sunny 68 20 59 15 73 73 NNE 13 20 29.88 1012 10 16.09344 0 0
10:55 am 10:55 Sunny 70 21 59 15 69 69 NE 13 20 29.88 1012 10 16.09344 0 0
11:15 am 11:15 Sunny 68 20 59 15 73 73 NNE 12 19 29.88 1012 10 16.09344 0 0
11:35 am 11:35 Sunny 70 21 61 16 73 73 NNE 12 19 29.88 1012 10 16.09344 0 0
11:55 am 11:55 Sunny 70 21 61 16 73 73 NE 15 24 29.88 1012 10 16.09344 0 0
12:15 pm 12:15 Sunny 70 21 61 16 73 73 NNE 9 15 29.88 1012 10 16.09344 0 0
12:35 pm 12:35 Sunny 72 22 61 16 69 69 N 14 22 29.85 1011 10 16.09344 0 0
12:55 pm 12:55 Sunny 72 22 59 15 65 65 N 13 20 29.85 1011 10 16.09344 0 0
1:15 pm 13:15 Sunny 72 22 59 15 65 65 N 10 17 29.83 1010 10 16.09344 0 0
1:35 pm 13:35 Sunny 73 23 59 15 61 61 NNE 13 20 29.83 1010 10 16.09344 0 0
1:55 pm 13:55 Sunny 73 23 59 15 61 61 NNE 10 17 29.83 1010 10 16.09344 0 0
2:15 pm 14:15 Sunny 73 23 59 15 61 61 NNE 12 19 29.8 1009 10 16.09344 0 0
2:35 pm 14:35 Sunny 75 24 59 15 57 57 N 10 17 29.8 1009 10 16.09344 0 0
2:55 pm 14:55 Sunny 75 24 59 15 57 57 NE 12 19 29.8 1009 10 16.09344 0 0
3:15 pm 15:15 Sunny 77 25 59 15 54 54 NNE 12 19 29.8 1009 10 16.09344 0 0
3:35 pm 15:35 Sunny 77 25 59 15 54 54 N 9 15 29.8 1009 10 16.09344 0 0
3:55 pm 15:55 Sunny 77 25 59 15 54 54 N 9 15 29.8 1009 10 16.09344 0 0
4:15 pm 16:15 Sunny 77 25 59 15 54 54 NNE 6 9 29.8 1009 10 16.09344 0 0
4:35 pm 16:35 Sunny 77 25 59 15 54 54 N 12 19 29.77 1008 10 16.09344 0 0
4:55 pm 16:55 Sunny 77 25 59 15 54 54 NE 10 17 29.8 1009 10 16.09344 0 0
5:15 pm 17:15 Sunny 77 25 59 15 54 54 N 7 11 29.8 1009 10 16.09344 0 0
5:35 pm 17:35 Sunny 77 25 59 15 54 54 NE 9 15 29.8 1009 10 16.09344 0 0
5:55 pm 17:55 Sunny 77 25 59 15 54 54 NE 10 17 29.8 1009 10 16.09344 0 0
6:15 pm 18:15 Sunny 75 24 59 15 57 57 NE 9 15 29.8 1009 10 16.09344 0 0
6:35 pm 18:35 Sunny 75 24 59 15 57 57 NE 9 15 29.8 1009 10 16.09344 0 0
6:55 pm 18:55 Sunny 73 23 59 15 61 61 NNE 5 7 29.8 1009 10 16.09344 0 0
7:15 pm 19:15 Sunny 73 23 59 15 61 61 NE 9 15 29.8 1009 10 16.09344 0 0
7:35 pm 19:35 Clear 72 22 59 15 65 65 ENE 6 9 29.8 1009 10 16.09344 0 0
8:15 pm 20:15 Clear 72 22 59 15 65 65 ENE 3 6 29.8 1009 10 16.09344 0 0
8:35 pm 20:35 Clear 70 21 59 15 69 69 NE 3 6 29.83 1010 10 16.09344 0 0
8:55 pm 20:55 Clear 70 21 59 15 69 69 Calm 29.83 1010 10 16.09344 0 0
9:15 pm 21:15 Clear 70 21 59 15 69 69 Calm 29.83 1010 10 16.09344 0 0
9:35 pm 21:35 Clear 64 18 61 16 88 88 Calm 29.83 1010 10 16.09344 0 0
9:55 pm 21:55 Clear 64 18 61 16 88 88 Calm 29.83 1010 10 16.09344 0 0
10:15 pm 22:15 Clear 66 19 61 16 83 83 Calm 29.83 1010 10 16.09344 0 0
10:35 pm 22:35 Partly Cloudy 63 17 61 16 94 94 Calm 29.85 1011 10 16.09344 0 0
10:55 pm 22:55 Clear 63 17 59 15 88 88 Calm 29.83 1010 10 16.09344 0 0
11:15 pm 23:15 Clear 63 17 59 15 88 88 Calm 29.83 1010 10 16.09344 0 0
11:35 pm 23:35 Clear 63 17 59 15 88 88 Calm 29.83 1010 10 16.09344 0 0
11:55 pm 23:55 Clear 63 17 59 15 88 88 Calm 29.85 1011 10 16.09344 0 0

Powered by AerisWeather